Terug naar catalogus

DELTA 1 DEB

ActiefSSO
NORAD 13537·DEBRIS·🇺🇸 United States

Gelanceerd Jul 29, 1976 vanaf Vandenberg Space Force Base

Loading…

Volgende Passages (komende 24 uur)

TLE

VersSource: Space-Track

Epoch: Sep 13, 2026, 22:01 UTC

1 13537U 76077EK  26256.91797146 -.00000029  00000-0  14714-3 0  9993
2 13537 102.5631 243.3360 0075100 136.6118 251.1317 12.27250487144152

Volg DELTA 1 DEB in realtime met AllMySat

Download on the App Store